cover

 

Get it on iTunes StoreListen on Apple Music

Flower Power

#Trackname / Key / BPM / Publish dateArtists, Remixers / Label
1 130 bpm, 3A / Bb minor, 2019-07-01, Techno,  0  21
2 125 bpm, 3A / Bb minor, 2019-07-01, Techno,  0  21
3 124 bpm, 4A / F minor, 2019-07-01, Progressive House,  0  21
4 124 bpm, 7A / D minor, 2019-07-01, Melodic House & Techno,  0  21
5 122 bpm, 6A / G minor, 2019-07-01, Progressive House,  0  21
6 123 bpm, 7A / D minor, 2019-07-01, Melodic House & Techno,  0  21
7 123 bpm, 9B / G major, 2019-07-01, Progressive House,  0  21
8 128 bpm, 6A / G minor, 2019-07-01, Melodic House & Techno,  0  21
9 125 bpm, 11B / A major, 2019-07-01, Melodic House & Techno,  0  21
10 122 bpm, 7A / D minor, 2019-07-01, Deep House,  0  21
11 126 bpm, 12B / E major, 2019-07-01, Melodic House & Techno,  0  21
12 125 bpm, 7A / D minor, 2019-07-01, Techno,  0  21
13 123 bpm, 8A / A minor, 2019-07-01, Progressive House,  0  21
14 124 bpm, 8B / C major, 2019-07-01, Techno,  0  21
15 120 bpm, 6A / G minor, 2019-07-01, Melodic House & Techno,  0  21
16 123 bpm, 10B / D major, 2019-07-01, Progressive House,  0  21
17 128 bpm, 5A / C minor, 2019-07-01, Techno,  0  21
18 122 bpm, 7A / D minor, 2019-07-01, Progressive House,  0  21
19 126 bpm, 8A / A minor, 2019-07-01, Techno,  0  21
20 124 bpm, 2A / Eb minor, 2019-07-01, Progressive House,  0  21
21 122 bpm, 6A / G minor, 2019-07-01, Melodic House & Techno,  0  21
22 125 bpm, 3A / Bb minor, 2019-06-24, Techno,  0  25
23 123 bpm, 8A / A minor, 2019-06-24, Techno,  0  25
24 123 bpm, 10A / B minor, 2019-06-24, Tech House,  1  25
25 126 bpm, 5A / C minor, 2019-06-24, Melodic House & Techno,  0  25
26 126 bpm, 2A / Eb minor, 2019-06-24, Progressive House,  0  25
27 124 bpm, 7A / D minor, 2019-06-24, Techno,  0  25
28 125 bpm, 5A / C minor, 2019-06-24, Progressive House,  0  25
29 123 bpm, 8A / A minor, 2019-06-24, Melodic House & Techno,  0  25
30 124 bpm, 6B / Bb major, 2019-06-24, Techno,  0  25
31 127 bpm, 11B / A major, 2019-06-24, Techno,  0  25
32 125 bpm, 8B / C major, 2019-06-24, Melodic House & Techno,  0  25
33 124 bpm, 8A / A minor, 2019-06-24, Techno,  0  25
34 127 bpm, 8A / A minor, 2019-06-24, Deep House,  0  25
35 127 bpm, 8A / A minor, 2019-06-24, Techno,  0  25
36 123 bpm, 8A / A minor, 2019-06-24, Techno,  0  25
37 125 bpm, 11B / A major, 2019-06-24, Techno,  0  25
38 125 bpm, 3A / Bb minor, 2019-06-24, Techno,  0  25
39 123 bpm, 7A / D minor, 2019-06-24, Techno,  0  25
40 123 bpm, 8A / A minor, 2019-06-24, Techno,  0  25
41 125 bpm, 3A / Bb minor, 2019-06-24, Techno,  0  25
42 126 bpm, 11B / A major, 2019-06-24, Techno,  0  25
43 126 bpm, 6B / Bb major, 2019-06-24, Techno,  0  25
44 125 bpm, 11A / F# minor, 2019-06-24, Techno,  0  25
45 127 bpm, 8A / A minor, 2019-06-24, Techno,  0  25
46 127 bpm, 11B / A major, 2019-06-24, Techno,  0  25
47 122 bpm, 8A / A minor, 2019-06-17, Melodic House & Techno,  0  21
48 118 bpm, 11B / A major, 2019-06-17, Electronica,  0  21
49 122 bpm, 8A / A minor, 2019-06-17, Melodic House & Techno,  0  21
50 124 bpm, 11B / A major, 2019-06-17, Melodic House & Techno,  0  21
51 120 bpm, 12A / Db minor, 2019-06-17, Electronica,  0  21
52 122 bpm, 6B / Bb major, 2019-06-17, Melodic House & Techno,  0  21
53 122 bpm, 10B / D major, 2019-06-17, Melodic House & Techno,  0  21
54 123 bpm, 8A / A minor, 2019-06-17, Melodic House & Techno,  0  21
55 123 bpm, 2A / Eb minor, 2019-06-17, Melodic House & Techno,  0  21
56 120 bpm, 7A / D minor, 2019-06-17, Melodic House & Techno,  0  21
57 125 bpm, 8A / A minor, 2019-06-17, Melodic House & Techno,  0  21
58 123 bpm, 8A / A minor, 2019-06-17, Melodic House & Techno,  0  21
59 122 bpm, 5A / C minor, 2019-06-17, Progressive House,  0  21
60 125 bpm, 10B / D major, 2019-06-17, Melodic House & Techno,  0  21
61 128 bpm, 6A / G minor, 2019-06-17, Melodic House & Techno,  0  21
62 127 bpm, 7B / F major, 2019-06-17, Melodic House & Techno,  0  21
63 123 bpm, 11B / A major, 2019-06-17, Melodic House & Techno,  0  21
64 125 bpm, 8B / C major, 2019-06-17, Melodic House & Techno,  0  21
65 124 bpm, 6B / Bb major, 2019-06-17, Melodic House & Techno,  0  21
66 126 bpm, 8A / A minor, 2019-06-17, Melodic House & Techno,  0  21
67 123 bpm, 8B / C major, 2019-06-17, Melodic House & Techno,  0  21
68 123 bpm, 10A / B minor, 2019-06-10, Tech House,  0  24
69 124 bpm, 11B / A major, 2019-06-10, Tech House,  1  24
70 124 bpm, 11B / A major, 2019-06-10, Tech House,  0  24
71 122 bpm, 9A / E minor, 2019-06-10, Deep House,  0  24
72 124 bpm, 2A / Eb minor, 2019-06-10, Tech House,  0  24
73 125 bpm, 8A / A minor, 2019-06-10, Tech House,  1  24
74 124 bpm, 11B / A major, 2019-06-10, Deep House,  0  24
75 123 bpm, 7B / F major, 2019-06-10, Tech House,  0  24
76 125 bpm, 7B / F major, 2019-06-10, Tech House,  0  24
77 124 bpm, 6A / G minor, 2019-06-10, Deep House,  0  24
78 122 bpm, 8A / A minor, 2019-06-10, Tech House,  0  24
79 123 bpm, 7A / D minor, 2019-06-10, Tech House,  0  24
80 127 bpm, 7A / D minor, 2019-06-10, Tech House,  0  24
81 122 bpm, 5A / C minor, 2019-06-10, Tech House,  0  24
82 123 bpm, 8A / A minor, 2019-06-10, Tech House,  1  24
83 121 bpm, 9B / G major, 2019-06-10, Tech House,  0  24
84 127 bpm, 8A / A minor, 2019-06-10, Tech House,  0  24
85 126 bpm, 8A / A minor, 2019-06-10, Tech House,  0  24
86 125 bpm, 8A / A minor, 2019-06-10, Tech House,  0  24
87 126 bpm, 8A / A minor, 2019-06-10, Tech House,  1  24
88 124 bpm, 8A / A minor, 2019-06-10, Tech House,  0  24
89 127 bpm, 11B / A major, 2019-06-10, Tech House,  0  24
90 125 bpm, 6B / Bb major, 2019-06-10, Tech House,  0  24
91 124 bpm, 8A / A minor, 2019-06-10, Tech House,  0  24
92 120 bpm, 9B / G major, 2019-06-03, Indie Dance / Nu Disco,  0  24
93 123 bpm, 8A / A minor, 2019-06-03, Tech House,  1  24
94 124 bpm, 8A / A minor, 2019-06-03, Tech House,  0  24
95 125 bpm, 7A / D minor, 2019-06-03, House,  0  24
96 124 bpm, 8A / A minor, 2019-06-03, Tech House,  1  24
97 123 bpm, 7A / D minor, 2019-06-03, Tech House,  0  24
98 126 bpm, 2A / Eb minor, 2019-06-03, Techno,  0  24
99 124 bpm, 8A / A minor, 2019-06-03, Progressive House,  0  24
100 126 bpm, 8A / A minor, 2019-06-03, Minimal,  0  24
×

Sign in

Sign in to access your personalized pages, follow artists and labels you love, and create playlists fromyour favorite tracks.

Please wait...